DW2227 Weather Reports


Display with metric or nautical units.
time (UTC)temp
F
wind
direction
speed
MPH
gust
MPH
rain 1hr
in
rain 24hr
in
rain mn
in
humidity
%
barometer
mb
20260504184351 83 232 0.0 0.0 0.00 0.00 0.00 30 999.5
20260504183836 82 310 0.0 0.0 0.00 0.00 0.00 31 999.6
20260504183318 82 340 0.0 0.0 0.00 0.00 0.00 29 999.5
20260504182842 82 331 0.0 0.0 0.00 0.00 0.00 35 999.5
20260504182324 82 250 0.0 0.0 0.00 0.00 0.00 34 999.5
20260504181823 82 295 0.0 0.0 0.00 0.00 0.00 33 999.5
20260504181327 82 281 0.0 0.0 0.00 0.00 0.00 34 999.5
20260504180852 82 219 0.0 0.0 0.00 0.00 0.00 36 999.4
20260504180353 82 5 0.0 0.0 0.00 0.00 0.00 36 999.4
20260504175852 82 304 0.0 0.0 0.00 0.00 0.00 36 999.5
20260504175354 82 273 0.0 0.0 0.00 0.00 0.00 35 999.6
20260504174836 82 243 0.0 0.0 0.00 0.00 0.00 33 999.6
20260504174316 82 330 0.0 0.0 0.00 0.00 0.00 33 999.6
20260504173837 82 74 0.0 0.0 0.00 0.00 0.00 35 999.7
20260504173320 82 119 0.0 0.0 0.00 0.00 0.00 36 999.6
20260504172818 81 19 0.0 0.0 0.00 0.00 0.00 36 999.7
20260504172319 81 218 0.0 0.0 0.00 0.00 0.00 36 999.6
20260504171821 81 244 0.0 0.0 0.00 0.00 0.00 39 999.7
20260504171324 81 110 0.0 0.0 0.00 0.00 0.00 37 999.9
20260504170827 80 267 0.0 0.0 0.00 0.00 0.00 38 999.9
20260504170329 80 177 0.0 0.0 0.00 0.00 0.00 39 999.9
20260504160340 77 169 0.0 0.0 0.00 0.00 0.00 42 1000.8
20260504150827 73 198 0.0 0.0 0.00 0.00 0.00 47 1001.3
20260504150330 72 168 0.0 0.0 0.00 0.00 0.00 49 1001.3
20260504140817 67 35 0.0 0.0 0.00 0.00 0.00 54 1002.1
20260504140320 66 178 0.0 0.0 0.00 0.00 0.00 53 1002.1
20260504130328 58 245 0.0 0.0 0.00 0.00 0.00 69 1003.1
20260504110316 47 360 0.0 0.0 0.00 0.00 0.00 82 1003.1
20260504100350 44 360 0.0 0.0 0.00 0.00 0.00 86 1003.6
20260504081824 46 360 0.0 0.0 0.00 0.00 0.00 83 1004.6
20260504081326 46 360 0.0 0.0 0.00 0.00 0.00 83 1004.5
20260504080826 46 360 0.0 0.0 0.00 0.00 0.00 83 1004.6
20260504080329 47 360 0.0 0.0 0.00 0.00 0.00 82 1004.6
20260504070333 49 360 0.0 0.0 0.00 0.00 0.00 76 1005.2
20260504050322 58 145 0.0 0.0 0.00 0.00 0.00 59 1006.2
20260504045820 58 220 0.0 0.0 0.00 0.00 0.00 59 1006.2
20260504045323 58 220 0.0 0.0 0.00 0.00 0.00 59 1006.2
20260504044828 58 138 0.0 0.0 0.00 0.00 0.00 57 1006.3
20260504044333 59 221 0.0 0.0 0.00 0.00 0.00 57 1006.2
20260504043856 59 37 0.0 0.0 0.00 0.00 0.00 57 1006.2
20260504043339 59 146 0.0 0.0 0.00 0.00 0.00 56 1006.3
20260504042822 59 146 0.0 0.0 0.00 0.00 0.00 56 1006.3
20260504042325 59 278 0.0 0.0 0.00 0.00 0.00 56 1006.3
20260504041824 60 171 0.0 0.0 0.00 0.00 0.00 55 1006.3
20260504041327 60 171 0.0 0.0 0.00 0.00 0.00 55 1006.3
20260504040852 60 225 0.0 0.0 0.00 0.00 0.00 54 1006.3
20260504040335 60 159 0.0 0.0 0.00 0.00 0.00 54 1006.3
20260504035818 60 234 0.0 0.0 0.00 0.00 0.00 53 1006.3
20260504035343 61 172 0.0 0.0 0.00 0.00 0.00 53 1006.5
20260504034826 61 297 0.0 0.0 0.00 0.00 0.00 53 1006.5
20260504034329 61 65 0.0 0.0 0.00 0.00 0.00 53 1006.6
20260504033853 61 227 0.0 0.0 0.00 0.00 0.00 52 1006.6
20260504033336 61 115 0.0 0.0 0.00 0.00 0.00 51 1006.6
20260504032856 61 87 0.0 0.0 0.00 0.00 0.00 51 1006.6
20260504032341 62 204 0.0 0.0 0.00 0.00 0.00 51 1006.6
20260504031824 62 157 0.0 0.0 0.00 0.00 0.00 51 1006.6
20260504031328 62 209 0.0 0.0 0.00 0.00 0.00 50 1006.6
20260504030832 62 34 0.0 0.0 0.00 0.00 0.00 50 1006.6
20260504030335 62 136 0.0 0.0 0.00 0.00 0.00 51 1006.4
20260504025838 62 202 0.0 0.0 0.00 0.00 0.00 49 1006.4
20260504025322 63 97 0.0 0.0 0.00 0.00 0.00 50 1006.4
20260504024825 63 293 0.0 0.0 0.00 0.00 0.00 49 1006.4
20260504024351 63 98 0.0 0.0 0.00 0.00 0.00 48 1006.3
20260504023830 63 206 0.0 0.0 0.00 0.00 0.00 48 1006.3
20260504023329 63 174 0.0 0.0 0.00 0.00 0.00 48 1006.3
20260504022830 64 130 0.0 0.0 0.00 0.00 0.00 47 1006.2
20260504022354 64 121 0.0 0.0 0.00 0.00 0.00 47 1006.2
20260504021835 64 168 0.0 0.0 0.00 0.00 0.00 46 1006.1
20260504021317 64 86 0.0 0.0 0.00 0.00 0.00 46 1006.2
20260504020843 65 76 0.0 0.0 0.00 0.00 0.00 45 1006.1
20260504020326 65 115 0.0 0.0 0.00 0.00 0.00 45 1006.1
20260504015828 65 226 0.0 0.0 0.00 0.00 0.00 44 1006.1
20260504015331 66 226 0.0 0.0 0.00 0.00 0.00 44 1006.1
20260504014834 66 360 0.0 0.0 0.00 0.00 0.00 43 1006.0
20260504014318 66 97 0.0 0.0 0.00 0.00 0.00 43 1006.1
20260504013843 67 360 0.0 0.0 0.00 0.00 0.00 43 1006.0
20260504013321 67 360 0.0 0.0 0.00 0.00 0.00 43 1005.9
20260504012824 67 360 0.0 0.0 0.00 0.00 0.00 42 1005.9
20260504012327 67 360 0.0 0.0 0.00 0.00 0.00 43 1005.9
20260504011830 68 360 0.0 0.0 0.00 0.00 0.00 42 1005.7
20260504011354 68 360 0.0 0.0 0.00 0.00 0.00 42 1005.8
20260504010836 69 360 0.0 0.0 0.00 0.00 0.00 41 1005.7
20260504010317 69 286 0.0 0.0 0.00 0.00 0.00 41 1005.6
20260504005820 69 78 0.0 0.0 0.00 0.00 0.00 40 1005.6
20260504005345 70 163 0.0 0.0 0.00 0.00 0.00 40 1005.6
20260504004828 70 34 0.0 0.0 0.00 0.00 0.00 40 1005.5
20260504004331 70 292 0.0 0.0 0.00 0.00 0.00 40 1005.5
20260504003834 70 25 0.0 0.0 0.00 0.00 0.00 39 1005.5
20260504003333 71 62 0.0 0.0 0.00 0.00 0.00 40 1005.5
20260504002837 71 250 0.0 0.0 0.00 0.00 0.00 38 1005.5
20260504002318 71 355 0.0 0.0 0.00 0.00 0.00 39 1005.5
20260504001821 72 147 0.0 0.0 0.00 0.00 0.00 39 1005.5
20260504001324 72 217 0.0 0.0 0.00 0.00 0.00 37 1005.5
20260504000828 72 242 0.0 0.0 0.00 0.00 0.00 37 1005.5
20260504000331 72 182 0.0 0.0 0.00 0.00 0.00 37 1005.5
20260503235834 72 271 0.0 0.0 0.00 0.00 0.00 38 1005.5
20260503235317 72 252 0.0 0.0 0.00 0.00 0.00 37 1005.5
20260503234820 72 134 0.0 0.0 0.00 0.00 0.00 38 1005.5
20260503234322 72 277 0.0 0.0 0.00 0.00 0.00 38 1005.5
20260503233823 72 228 0.0 0.0 0.00 0.00 0.00 37 1005.6
20260503233326 72 279 0.0 0.0 0.00 0.00 0.00 37 1005.5
20260503232830 73 163 0.0 0.0 0.00 0.00 0.00 40 1005.7
20260503232332 72 304 0.0 0.0 0.00 0.00 0.00 38 1005.7
20260503231817 72 198 0.0 0.0 0.00 0.00 0.00 37 1005.7
20260503231337 72 107 0.0 0.0 0.00 0.00 0.00 39 1005.8
20260503230820 72 317 0.0 1.0 0.00 0.00 0.00 39 1005.8
20260503230325 72 304 0.0 1.0 0.00 0.00 0.00 41 1005.9
20260503225849 73 251 0.0 0.0 0.00 0.00 0.00 40 1005.9
20260503225332 73 211 0.0 1.0 0.00 0.00 0.00 39 1005.8
20260503224835 73 252 0.0 1.0 0.00 0.00 0.00 38 1005.8
20260503224316 73 171 0.0 0.0 0.00 0.00 0.00 40 1005.7
20260503223821 73 291 0.0 6.0 0.00 0.00 0.00 39 1005.8
20260503223323 73 327 1.0 7.0 0.00 0.00 0.00 37 1005.7
20260503222829 74 232 3.0 9.0 0.00 0.00 0.00 37 1005.8
20260503222330 74 240 2.0 9.0 0.00 0.00 0.00 37 1005.8
20260503221855 74 355 2.0 4.0 0.00 0.00 0.00 37 1005.9
20260503221333 74 254 2.0 7.0 0.00 0.00 0.00 38 1005.8
20260503220825 74 257 2.0 7.0 0.00 0.00 0.00 37 1006.0
20260503220336 74 247 1.0 8.0 0.00 0.00 0.00 39 1005.9
20260503215825 74 274 3.0 8.0 0.00 0.00 0.00 40 1005.9
20260503215325 74 243 3.0 7.0 0.00 0.00 0.00 38 1006.1
20260503214832 74 241 3.0 6.0 0.00 0.00 0.00 37 1006.1
20260503214333 74 292 1.0 6.0 0.00 0.00 0.00 38 1006.1
20260503213840 75 142 2.0 6.0 0.00 0.00 0.00 37 1006.2
20260503213322 74 157 2.0 7.0 0.00 0.00 0.00 35 1006.1
20260503212845 74 231 2.0 7.0 0.00 0.00 0.00 36 1006.1
20260503212331 74 266 2.0 7.0 0.00 0.00 0.00 35 1006.2
20260503211832 74 306 2.0 6.0 0.00 0.00 0.00 35 1006.2
20260503211339 74 355 2.0 7.0 0.00 0.00 0.00 38 1006.2
20260503210816 74 168 2.0 6.0 0.00 0.00 0.00 38 1006.3
20260503210316 74 244 2.0 8.0 0.00 0.00 0.00 37 1006.4
20260503205843 74 265 2.0 8.0 0.00 0.00 0.00 37 1006.6
20260503205341 74 263 1.0 10.0 0.00 0.00 0.00 36 1006.7
20260503204846 74 259 3.0 10.0 0.00 0.00 0.00 35 1006.7
20260503204329 74 262 3.0 8.0 0.00 0.00 0.00 36 1006.7
20260503203827 73 171 2.0 6.0 0.00 0.00 0.00 37 1006.7
20260503203331 73 320 2.0 7.0 0.00 0.00 0.00 39 1006.7
20260503202839 73 174 2.0 7.0 0.00 0.00 0.00 38 1006.7
20260503202317 73 34 2.0 6.0 0.00 0.00 0.00 37 1006.7
20260503201817 73 263 2.0 8.0 0.00 0.00 0.00 38 1006.7
20260503201323 73 269 1.0 8.0 0.00 0.00 0.00 38 1006.8
20260503200844 73 265 2.0 8.0 0.00 0.00 0.00 39 1006.9
20260503200331 73 300 2.0 7.0 0.00 0.00 0.00 40 1006.8
20260503195829 73 106 2.0 7.0 0.00 0.00 0.00 38 1007.0
20260503195338 72 254 3.0 7.0 0.00 0.00 0.00 38 1006.9
20260503194817 72 13 1.0 8.0 0.00 0.00 0.00 39 1006.9
20260503194319 72 242 3.0 8.0 0.00 0.00 0.00 37 1007.1
20260503193820 72 269 2.0 5.0 0.00 0.00 0.00 40 1007.3
20260503193325 72 232 2.0 8.0 0.00 0.00 0.00 37 1007.2
20260503192825 72 301 3.0 8.0 0.00 0.00 0.00 40 1007.4
20260503192332 72 306 1.0 9.0 0.00 0.00 0.00 41 1007.4
20260503191831 71 289 2.0 9.0 0.00 0.00 0.00 39 1007.4
20260503191329 71 156 3.0 12.0 0.00 0.00 0.00 39 1007.4
20260503190815 71 292 2.0 8.0 0.00 0.00 0.00 42 1007.6
20260503190315 71 90 2.0 10.0 0.00 0.00 0.00 42 1007.6
20260503185816 70 298 3.0 10.0 0.00 0.00 0.00 40 1007.7
20260503185322 70 313 2.0 7.0 0.00 0.00 0.00 41 1007.6
20260503184825 70 304 3.0 12.0 0.00 0.00 0.00 41 1007.6